Location: Cahas Mountain Overlook
(37.0833°N, 80.1000°W)
Time: 08:30:39
(UTC-04:00)

Explorer 7 - Pass Details

Date: 08 February 2026
Orbit: 430 x 540 km, 50.2° (Epoch: 14 March)

Event Time Altitude Azimuth Distance (km) Brightness Sun altitude
Rises 17:03:37 0° 187° (S) 2,439 10.6 8.3°
Reaches altitude 10° 17:06:29 10° 162° (SSE) 1,597 9.3 7.8°
Maximum altitude 17:08:27 14° 128° (SE) 1,380 8.6 7.4°
Drops below altitude 10° 17:10:29 10° 95° (E) 1,640 8.7 7.1°
Sets 17:13:30 0° 70° (ENE) 2,555 9.5 6.5°
